Sat, 2019 March 23. @ 04:16 (Europe/Berlin) | Change timezone

Search

Search

Find competitions and teams quickly

Compare

Compare

Click on this h2h icon anywhere to compare teams and see statistics

Fixtures

Fixtures

View today's matches, tomorrow's fixtures, yesterday's results or fixtures on any specific date by using the calendar


Fixtures - 2018.11.22

Group by: leagues | time
Time Home Score Away 1 X 2 H2H
 Basketball Austria Basketball Bundesliga 2018/2019
19:00 Vienna Basket Clubs 66 : 73 Danube City Timberwolves 1.59 15.00 2.48
 Basketball Basketball NBA 2018/2019
01:00 Charlotte Bobcats 127 : 109 Indiana 1.66 13.00 2.55
01:00 Philadelphia 121 : 120 New Orleans 1.65 13.00 2.60
01:30 Boston 109 : 117 New York 1.07 22.00 11.00
01:30 Atlanta 108 : 124 Toronto 3.95 14.00 1.34
02:00 Milwaukee 143 : 100 Portland 1.40 13.00 3.55
02:00 Houston 126 : 124 Detroit 1.26 15.00 4.80
02:00 Cleveland 105 : 109 L.A.Lakers 5.20 16.00 1.23
02:00 Minnesota 101 : 103 Denver 2.00 12.00 2.04
02:00 Chicago 124 : 116 Phoenix 2.05 12.00 2.00
02:30 San Antonio 103 : 104 Memphis 1.74 12.00 2.40
02:30 Dallas 119 : 113 New Jersey 1.53 13.00 2.95
03:00 Utah 110 : 119 Sacramento 1.23 15.00 5.20
04:30 Golden State 95 : 123 Oklahoma City 1.99 12.00 2.05
 Soccer Brazil Serie A 2018
00:45 Cruzeiro 3 : 0 Vitória 1.67 3.55 5.21
00:45 Flamengo 2 : 0 Gremio 2.13 3.06 3.74
00:45 Palmeiras 4 : 0 Am 1.25 5.33 11.70
00:45 Atlético Paranaense 1 : 0 Corinthians 1.46 4.11 7.46
23:00 Vasco da Gama 2 : 0 Sao Paulo 2.50 3.08 2.91
 Hockey CHL Kontinental Hockey League 2018/2019
15:00 Magnitogorsk 2 : 3 Kazaň 2.36 3.94 2.61
15:00 Jekatěrinburg 1 : 3 Nižnyj Novgorod 1.49 5.12 5.25
15:00 Čeljabinsk 3 : 2 Nižněkamsk 2.62 3.88 2.41
17:30 Čerepovec 1 : 6 Petrohrad 7.58 5.80 1.32
17:30 Jaroslavl 2 : 0 Dynamo Moskva 1.81 4.16 3.71
 Basketball Czech Republic National League M 2018/2019
10:00 Nymburk 101 : 56 USK Praha - - -
18:00 Opava 95 : 79 Ostrava NH 1.05 - 8.40
 Soccer Denmark Landspokal 2018/2019
19:00 Marienlyst 1 : 4 Bröndby Kobenhavn 21.75 12.50 1.04
 Hockey Denmark SuperBest-ligaen 2018/2019
19:00 Fredrikshavn 3 : 1 Herning 2.16 4.26 2.61
19:00 Rungsted 3 : 0 Totempo Hvidovre HVIK 1.19 7.83 9.50
 Basketball Euroleague Euroleague M 2018/2019
18:15 Darüssafaka Istanbul 88 : 93 Pilsen Istanbul 3.40 17.00 1.40
19:45 Olympiakos Pireus 88 : 83 Real Madrid Teka 1.81 15.00 2.22
20:05 Maccabi Tel Aviv 70 : 74 Fenerbahce 2.90 16.00 1.51
21:30 C.B. Gran Canaria 74 : 89 Bayern M 2.01 15.00 1.98
 Handball France D1M 2018/2019
20:45 Saint-Raphaël 28 : 18 Dunkerque 1.42 10.17 3.90
 Soccer France National 2018/2019
20:30 Boulogne 0 : 3 Rodez 2.00 2.89 3.93
 Basketball France Pro A M 2018/2019
20:00 Gravelines Dunkerque 85 : 81 Chalons-Reims 1.22 20.00 4.80
 Handball Germany Bundesliga M 2018/2019
19:00 Kiel 26 : 22 Füchse Berlin 1.11 18.50 9.75
19:00 Gummersbach 23 : 33 Flensburg-Handewitt 18.75 28.75 1.04
19:00 Melsungen 27 : 26 Erlangen HC 1.17 14.25 7.19
19:00 Bergischer HC 25 : 28 Frisch Auf Göppingen 1.61 8.67 3.20
19:00 Lemgo 29 : 24 Stuttgart TVB 1.58 8.92 3.23
19:00 Bietigheim-Metterzimmern 29 : 33 Magdeburg 14.67 24.00 1.07
 Hockey Germany DEL 2018/2019
19:30 Eisbaren 3 : 2 ot(p) Düsseldorf 2.00 4.52 2.88
 Soccer Greece B Ethniki 2018/2019
14:00 Iraklis Saloniki 3 : 4 Apollon Larissas 1.52 4.21 4.67
 Hockey Ice Hockey NHL 2018/2019
01:00 Washington 4 : 2 Chicago 2.09 4.07 2.92
01:00 Carolina 5 : 2 Toronto 2.43 4.03 2.48
01:00 Pittsburgh 5 : 1 Dallas 1.87 4.17 3.47
01:00 NY Rangers 5 : 0 NY Islanders 2.44 4.10 2.44
01:00 New Jersey 5 : 2 Montreal 2.12 4.03 2.93
01:30 Tampa Bay 7 : 3 Florida 1.97 4.10 3.22
01:30 Detroit 3 : 2 ot Boston 2.72 3.95 2.28
01:30 Buffalo 5 : 2 Philadelphia 2.42 4.00 2.50
02:00 Nashville 4 : 1 St. Louis 1.86 4.10 3.65
02:00 Minnesota 6 : 4 Ottawa 1.64 4.45 4.40
03:00 Phoenix 2 : 3 ot Las Vegas 2.68 3.88 2.32
04:00 Anaheim 4 : 3 Vancouver 2.03 4.03 3.12
04:00 Calgary 6 : 3 Atlanta 2.42 3.98 2.52
04:30 Los Angeles 3 : 7 Colorado 2.75 3.95 2.27
 Soccer Macedonia First League 2018/2019
13:00 Shkendija 79 Tetovo 5 : 0 Sileks Krakovo 1.21 5.58 10.81
13:00 Vardar Skopje 0 : 1 Rabotnički 1.97 3.04 3.87
13:00 Belasica Strumica 3 : 1 Renova FK 1.89 3.26 3.79
13:00 Akademija Pandev 2 : 1 Pobeda Prilep 1.50 3.75 6.10
13:00 Makedonia Skopje 2 : 2 Shkupi Skopje 2.20 3.03 3.23
 Hockey Norway Eliteserien 2018/2019
18:30 Valerenga Oslo 5 : 7 Lillehammer 1.84 4.55 3.20
18:30 Storhamar 2 : 3 Stavanger 1.84 4.48 3.23
18:30 Frisk/Asker 4 : 0 Ringerike IHK 1.14 9.25 11.00
 Hockey Poland Ekstraliga 2018/2019
18:00 Podhale Nowy Targ 4 : 1 Toruň 1.29 6.50 6.13
 Soccer Portugal Taça de Portugal 2018/2019
21:45 Benfica Lisabon 2 : 1 Arouca 1.15 6.77 14.05
 Soccer Romania Liga II 2018/2019
18:30 Petrolul Ploiesti 2 : 2 UT Arad 1.18 5.78 11.81
 Hockey Slovakia Extraliga 2018/2019
17:00 Žilina 2 : 1 ot Nov 3.28 4.48 1.81
17:00 Poprad 8 : 0 Slovensko 20 1.04 15.33 24.67
 Hockey Sweden Elitserien 2018/2019
19:00 Timra IK 3 : 5 Skelleftea AIK 3.67 4.32 1.80
19:00 HV 71 1 : 2 Brynas Gavle 1.87 4.25 3.47
19:00 Örebro HK 2 : 3 Lulea HF 2.39 4.07 2.52
19:00 Mora IK 2 : 3 ot(p) Malmo IF 2.85 4.18 2.13
19:00 Vaxjö Lakers HC 4 : 3 ot Djurgarden IF 2.15 4.15 2.85
19:00 Linköpings 2 : 3 Rogle BK 2.03 4.20 3.08
 Soccer Sweden Svenska Cupen 2018/2019
19:00 Lunds BK 0 : 2 Malmö FF 18.63 9.44 1.07

Sport statistics

  • soccer, basketball, handball and icehockey statistics from more than 150 leagues (results, tables, fixtures, other usefull statistics, bookies odds etc.)
  • other useful things: comparision of teams and leagues, streaks, selections, predictions, head-to-head
  • the statistics are updated three times each day
  • RSS feeds for the upcoming matches from each sport, just click on the RSS feed in the URL field of your browser
  • archived competitions, most of them from 2003

For a detailed description of all functions and their usage check our Help page.